Date String (YYYY-MM-DD hh:mm:ss) UTC,Instrument flags,absolute air pressure of the measurement (hPa),sample flow rate (lpm),inlet stack bypass flow (lpm),air temperature of the measurement (°C),ambient temperature measured by the external sensor (°C),aerosol sample conditioner tube jacket temperature (°C),OPC LED temperature (°C),internal box temperature (°C),relative humidity of the measurement (%),span deviation,mass concentration of particles derived from Lorenz-Mie calculation of OPC scattering (μg/m³),mass concentration of particles derived from Lorenz-Mie calculation of OPC scattering (μg/m³),mass concentration of particles derived from Lorenz-Mie calculation of OPC scattering (μg/m³)
DateTimeUTC,F1_M11,P_M11,Q1_M11,Q2_M11,T1_M11,T2_M11,T3_M11,T4_M11,T5_M11,U1_M11,ZSPAN_M11,X2_M11,X0_M11,X1_M11
2024-01-24 17:00:00,SystemResetWarning,0827.4,5.00,000.00,021.8,021.0,000.0,030.0,023.3,17.7,0002.6,0006.37,0010.19,0006.03
2024-01-24 17:01:00,SystemResetWarning,0827.4,5.00,000.00,021.8,021.0,000.0,030.0,023.3,17.5,0002.7,0006.33,0010.15,0005.98
2024-01-24 17:02:00,SystemResetWarning,0827.4,5.00,000.00,021.8,021.1,000.0,030.0,023.3,17.3,0002.7,0006.31,0010.18,0005.96
2024-01-24 17:03:00,SystemResetWarning,0827.6,5.00,000.00,021.8,021.1,000.0,030.0,023.3,17.2,0002.9,0006.27,0010.17,0005.93
2024-01-24 17:04:00,SystemResetWarning,0827.8,5.00,000.00,021.8,021.1,000.0,030.0,023.3,16.5,0003.0,0006.25,0009.95,0005.90
2024-01-24 17:05:00,SystemResetWarning,0827.9,5.00,000.00,021.8,021.1,000.0,030.0,023.3,16.4,0002.7,0006.17,0009.76,0005.85
2024-01-24 17:06:00,SystemResetWarning,0827.8,4.99,000.00,021.8,021.1,000.0,030.0,023.3,15.9,0002.7,0006.12,0009.50,0005.79
2024-01-24 17:07:00,SystemResetWarning,0827.9,5.00,000.00,021.8,021.1,000.0,030.1,023.4,16.0,0002.7,0006.03,0009.42,0005.71
2024-01-24 17:08:00,SystemResetWarning,0827.9,5.00,000.00,021.9,021.2,000.0,030.1,023.4,16.3,0002.9,0005.92,0009.31,0005.60
2024-01-24 17:09:00,SystemResetWarning,0827.8,5.00,000.00,021.9,021.2,000.0,030.1,023.4,16.1,0002.4,0005.78,0008.87,0005.47
2024-01-24 17:10:00,SystemResetWarning,0827.8,5.00,000.00,021.9,021.2,000.0,030.1,023.4,16.0,0002.0,0005.66,0008.36,0005.34
2024-01-24 17:11:00,SystemResetWarning,0827.6,5.00,000.00,021.9,021.2,000.0,030.1,023.4,17.5,0000.0,0005.50,0008.20,0005.19
2024-01-24 17:12:00,SystemResetWarning,0827.5,5.00,000.00,021.9,021.2,000.0,030.1,023.4,18.8,0000.0,0005.28,0008.02,0004.99
2024-01-24 17:13:00,SystemResetWarning,0827.5,5.00,000.00,021.9,021.3,000.0,030.1,023.4,19.1,0000.0,0005.06,0007.77,0004.79
2024-01-24 17:14:00,SystemResetWarning,0827.5,5.00,000.00,021.9,021.3,000.0,030.1,023.4,20.1,0000.0,0004.84,0007.53,0004.59
2024-01-24 17:15:00,SystemResetWarning,0827.5,5.00,000.00,021.9,021.3,000.0,030.2,023.4,20.0,0000.0,0004.65,0007.29,0004.41
2024-01-24 17:16:00,SystemResetWarning,0827.5,5.01,000.00,022.0,021.3,000.0,030.2,023.4,20.3,0000.0,0004.42,0006.94,0004.19
2024-01-24 17:17:00,SystemResetWarning,0827.5,5.00,000.00,022.0,021.3,000.0,030.2,023.4,20.2,0000.0,0004.20,0006.59,0003.99
2024-01-24 17:18:00,SystemResetWarning,0827.5,5.01,000.00,022.0,021.3,000.0,030.2,023.4,19.7,0000.0,0004.02,0006.13,0003.82
2024-01-24 17:19:00,SystemResetWarning,0827.5,5.00,000.00,022.0,021.3,000.0,030.2,023.5,19.5,0000.0,0003.84,0005.73,0003.68
2024-01-24 17:20:00,SystemResetWarning,0827.5,4.99,000.00,022.0,021.3,000.0,030.2,023.5,20.2,0000.0,0003.75,0005.59,0003.57
2024-01-24 17:21:00,SystemResetWarning,0827.6,5.00,000.00,022.0,021.3,000.0,030.2,023.5,20.1,0000.0,0003.65,0005.34,0003.48
2024-01-24 17:22:00,SystemResetWarning,0827.5,5.00,000.00,022.0,021.4,000.0,030.2,023.5,20.0,0000.0,0003.59,0005.09,0003.45
2024-01-24 17:23:00,SystemResetWarning,0827.6,5.00,000.00,022.0,021.4,000.0,030.2,023.5,20.4,0000.0,0003.62,0004.95,0003.46
2024-01-24 17:24:00,SystemResetWarning,0827.9,5.00,000.00,022.0,021.4,000.0,030.3,023.5,19.9,0000.0,0003.67,0005.06,0003.48
2024-01-24 17:25:00,SystemResetWarning,0827.7,5.00,000.00,022.0,021.4,000.0,030.3,023.5,19.6,0000.0,0003.68,0005.25,0003.49
2024-01-24 17:26:00,SystemResetWarning,0827.4,5.00,000.00,022.0,021.4,000.0,030.3,023.5,20.0,0000.0,0003.67,0005.60,0003.48
2024-01-24 17:27:00,SystemResetWarning,0827.4,5.01,000.00,022.1,021.4,000.0,030.3,023.5,19.9,0000.0,0003.69,0005.59,0003.49
2024-01-24 17:28:00,SystemResetWarning,0827.4,5.00,000.00,022.1,021.4,000.0,030.3,023.5,19.6,0000.0,0003.72,0005.67,0003.50
2024-01-24 17:29:00,SystemResetWarning,0827.4,4.99,000.00,022.1,021.4,000.0,030.3,023.5,19.9,0000.0,0003.71,0005.62,0003.50
2024-01-24 17:30:00,SystemResetWarning,0827.4,4.99,000.00,022.1,021.4,000.0,030.3,023.5,19.2,0000.0,0003.71,0007.34,0003.49
2024-01-24 17:31:00,SystemResetWarning,0827.4,4.99,000.00,022.1,021.4,000.0,030.3,023.6,19.0,0000.0,0003.70,0007.33,0003.47
2024-01-24 17:32:00,SystemResetWarning,0827.4,5.00,000.00,022.1,021.4,000.0,030.3,023.6,19.2,0000.0,0003.67,0007.32,0003.44
2024-01-24 17:33:00,SystemResetWarning,0827.4,5.00,000.00,022.1,021.5,000.0,030.4,023.6,19.2,0000.0,0003.62,0007.35,0003.37
2024-01-24 17:34:00,SystemResetWarning,0827.4,5.01,000.00,022.1,021.5,000.0,030.4,023.6,19.2,0000.0,0003.65,0007.38,0003.39
2024-01-24 17:35:00,SystemResetWarning,0827.4,5.00,000.00,022.1,021.5,000.0,030.4,023.6,18.8,0000.0,0003.71,0007.45,0003.47
2024-01-24 17:36:00,SystemResetWarning,0827.4,5.01,000.00,022.1,021.5,000.0,030.4,023.6,19.2,0000.0,0003.80,0007.43,0003.58
2024-01-24 17:37:00,SystemResetWarning,0827.4,5.00,000.00,022.1,021.5,000.0,030.4,023.6,18.6,0000.0,0004.00,0007.37,0003.75
2024-01-24 17:38:00,SystemResetWarning,0827.4,5.00,000.00,022.2,021.5,000.0,030.4,023.6,18.1,0000.0,0004.22,0007.63,0003.95
2024-01-24 17:39:00,SystemResetWarning,0827.4,5.00,000.00,022.2,021.5,000.0,030.4,023.7,19.1,0000.0,0004.47,0007.88,0004.19
2024-01-24 17:40:00,SystemResetWarning,0827.4,5.00,000.00,022.2,021.5,000.0,030.4,023.6,17.8,0000.0,0004.72,0008.14,0004.41
2024-01-24 17:41:00,SystemResetWarning,0827.4,5.00,000.00,022.2,021.5,000.0,030.4,023.7,18.3,0000.0,0004.96,0007.58,0004.63
2024-01-24 17:42:00,SystemResetWarning,0827.4,5.01,000.00,022.2,021.5,000.0,030.4,023.7,18.3,0000.0,0005.18,0007.63,0004.85
2024-01-24 17:43:00,SystemResetWarning,0827.4,5.01,000.00,022.2,021.5,000.0,030.4,023.7,18.6,0000.0,0005.44,0007.95,0005.09
2024-01-24 17:44:00,SystemResetWarning,0827.4,5.00,000.00,022.2,021.6,000.0,030.4,023.6,19.1,0000.0,0005.65,0008.15,0005.31
2024-01-24 17:45:00,SystemResetWarning,0827.4,5.00,000.00,022.2,021.6,000.0,030.5,023.6,19.2,0001.7,0005.79,0008.56,0005.45
2024-01-24 17:46:00,SystemResetWarning,0827.4,5.00,000.00,022.2,021.6,000.0,030.5,023.7,19.7,0000.4,0005.86,0008.98,0005.50
2024-01-24 17:47:00,SystemResetWarning,0827.4,4.99,000.00,022.2,021.6,000.0,030.5,023.7,18.9,0000.0,0005.90,0009.01,0005.54
2024-01-24 17:48:00,SystemResetWarning,0827.4,5.00,000.00,022.2,021.6,000.0,030.5,023.7,18.8,0000.0,0005.85,0008.99,0005.50
2024-01-24 17:49:00,SystemResetWarning,0827.4,5.00,000.00,022.2,021.6,000.0,030.5,023.7,18.4,0001.1,0005.82,0009.02,0005.48
2024-01-24 17:50:00,SystemResetWarning,0827.4,5.01,000.00,022.2,021.6,000.0,030.5,023.7,17.4,0000.7,0005.75,0008.99,0005.42
2024-01-24 17:51:00,SystemResetWarning,0827.4,5.01,000.00,022.3,021.6,000.0,030.5,023.7,18.0,0000.0,0005.67,0008.89,0005.34
2024-01-24 17:52:00,SystemResetWarning,0827.4,5.00,000.00,022.3,021.6,000.0,030.5,023.7,18.4,0000.0,0005.60,0008.82,0005.28
2024-01-24 17:53:00,SystemResetWarning,0827.4,5.00,000.00,022.3,021.6,000.0,030.5,023.7,19.0,0000.4,0005.53,0008.78,0005.21
2024-01-24 17:54:00,SystemResetWarning,0827.4,5.00,000.00,022.3,021.6,000.0,030.5,023.7,19.3,0001.0,0005.38,0008.58,0005.07
2024-01-24 17:55:00,SystemResetWarning,0827.4,4.99,000.00,022.3,021.6,000.0,030.5,023.7,18.4,0002.1,0005.28,0008.42,0004.98
2024-01-24 17:56:00,SystemResetWarning,0827.4,5.00,000.00,022.3,021.6,000.0,030.5,023.7,18.9,0000.9,0005.17,0008.06,0004.88
2024-01-24 17:57:00,SystemResetWarning,0827.4,4.99,000.00,022.3,021.6,000.0,030.5,023.7,18.7,0000.0,0005.07,0007.56,0004.79
2024-01-24 17:58:00,SystemResetWarning,0827.4,5.00,000.00,022.3,021.6,000.0,030.6,023.7,18.2,0000.0,0005.05,0007.92,0004.72
2024-01-24 17:59:00,SystemResetWarning,0827.4,5.00,000.00,022.3,021.6,000.0,030.6,023.7,18.1,0000.7,0005.29,0009.29,0004.72
